Time,TemperatureF,DewpointF,PressureIn,WindDirection,WindDirectionDegrees,WindSpeedMPH,WindSpeedGustMPH,Humidity,HourlyPrecipIn,Conditions,Clouds,dailyrainin,SoftwareType,DateUTC
2013-01-01 00:02:00,21.0,18.0,30.16,North,9,4.0,9.0,88,0.00,,,0.02,,2013-01-01 06:02:00,
2013-01-01 00:12:00,21.0,18.0,30.16,North,9,4.0,9.0,88,0.00,,,0.02,,2013-01-01 06:12:00,
2013-01-01 00:22:00,20.0,17.0,30.16,NNW,340,4.0,11.0,88,0.00,,,0.02,,2013-01-01 06:22:00,
2013-01-01 00:32:00,20.0,17.0,30.15,NNW,338,4.0,9.0,88,0.00,,,0.02,,2013-01-01 06:32:00,
2013-01-01 00:42:00,20.0,17.0,30.15,NNW,338,4.0,9.0,88,0.00,,,0.02,,2013-01-01 06:42:00,
2013-01-01 00:52:00,20.0,17.0,30.15,North,355,4.0,8.0,88,0.00,,,0.02,,2013-01-01 06:52:00,
2013-01-01 01:02:00,20.0,17.0,30.15,North,360,4.0,8.0,88,0.00,,,0.02,,2013-01-01 07:02:00,
2013-01-01 01:12:00,20.0,17.0,30.15,NNW,338,5.0,8.0,88,0.00,,,0.02,,2013-01-01 07:12:00,
2013-01-01 01:22:00,20.0,17.0,30.15,NNW,338,5.0,8.0,88,0.00,,,0.02,,2013-01-01 07:22:00,
2013-01-01 01:32:00,20.0,17.0,30.15,NNW,338,5.0,8.0,88,0.00,,,0.02,,2013-01-01 07:32:00,
2013-01-01 01:42:00,20.0,17.0,30.15,NNW,338,5.0,8.0,88,0.00,,,0.02,,2013-01-01 07:42:00,
2013-01-01 01:52:00,21.0,18.0,30.16,North,355,4.0,8.0,88,0.00,,,0.02,,2013-01-01 07:52:00,
2013-01-01 02:02:00,21.0,18.0,30.16,NNE,18,3.0,9.0,88,0.00,,,0.02,,2013-01-01 08:02:00,
2013-01-01 02:12:00,21.0,18.0,30.16,NNE,18,3.0,9.0,88,0.00,,,0.02,,2013-01-01 08:12:00,
2013-01-01 02:22:00,21.0,18.0,30.16,NNW,342,4.0,7.0,88,0.00,,,0.02,,2013-01-01 08:22:00,
2013-01-01 02:32:00,21.0,18.0,30.17,North,9,2.0,8.0,88,0.00,,,0.02,,2013-01-01 08:32:00,
2013-01-01 02:42:00,21.0,18.0,30.17,North,9,2.0,8.0,88,0.00,,,0.02,,2013-01-01 08:42:00,
2013-01-01 02:53:00,21.0,18.0,30.17,North,9,2.0,8.0,88,0.00,,,0.02,,2013-01-01 08:53:00,
2013-01-01 03:02:00,21.0,18.0,30.18,North,355,3.0,6.0,88,0.00,,,0.02,,2013-01-01 09:02:00,
2013-01-01 03:12:00,21.0,18.0,30.18,North,355,3.0,6.0,88,0.00,,,0.02,,2013-01-01 09:12:00,
2013-01-01 03:22:00,21.0,18.0,30.18,North,350,2.0,5.0,88,0.00,,,0.02,,2013-01-01 09:22:00,
2013-01-01 03:32:00,21.0,18.0,30.17,North,355,4.0,7.0,88,0.00,,,0.02,,2013-01-01 09:32:00,
2013-01-01 03:42:00,21.0,18.0,30.17,North,355,4.0,7.0,88,0.00,,,0.02,,2013-01-01 09:42:00,
2013-01-01 03:52:00,21.0,18.0,30.18,NNW,342,3.0,7.0,88,0.00,,,0.02,,2013-01-01 09:52:00,
2013-01-01 04:02:00,21.0,18.0,30.18,NNW,338,3.0,7.0,88,0.00,,,0.02,,2013-01-01 10:02:00,
2013-01-01 04:12:00,21.0,18.0,30.18,NNW,338,3.0,7.0,88,0.00,,,0.02,,2013-01-01 10:12:00,
2013-01-01 04:22:00,21.0,18.0,30.17,NNE,20,4.0,7.0,87,0.00,,,0.02,,2013-01-01 10:22:00,
2013-01-01 04:33:00,21.0,18.0,30.18,NNW,328,4.0,9.0,88,0.00,,,0.02,,2013-01-01 10:33:00,
2013-01-01 04:42:00,21.0,18.0,30.18,NNW,328,4.0,9.0,88,0.00,,,0.02,,2013-01-01 10:42:00,
2013-01-01 04:53:00,21.0,17.0,30.18,NNW,347,4.0,8.0,85,0.00,,,0.02,,2013-01-01 10:53:00,
2013-01-01 05:02:00,20.0,16.0,30.19,North,360,4.0,8.0,83,0.00,,,0.02,,2013-01-01 11:02:00,
2013-01-01 05:12:00,20.0,16.0,30.19,North,360,4.0,8.0,83,0.00,,,0.02,,2013-01-01 11:12:00,
2013-01-01 05:22:00,20.0,15.0,30.19,NNW,333,5.0,9.0,82,0.00,,,0.02,,2013-01-01 11:22:00,
2013-01-01 05:32:00,20.0,16.0,30.20,NNE,20,4.0,8.0,83,0.00,,,0.02,,2013-01-01 11:32:00,
2013-01-01 05:42:00,20.0,16.0,30.20,NNE,20,4.0,8.0,83,0.00,,,0.02,,2013-01-01 11:42:00,
2013-01-01 05:53:00,20.0,16.0,30.21,North,360,4.0,7.0,83,0.00,,,0.02,,2013-01-01 11:53:00,
2013-01-01 06:02:00,20.0,16.0,30.19,North,5,4.0,9.0,84,0.00,,,0.02,,2013-01-01 12:02:00,
2013-01-01 06:12:00,20.0,16.0,30.19,North,5,4.0,9.0,84,0.00,,,0.02,,2013-01-01 12:12:00,
2013-01-01 06:22:00,20.0,16.0,30.20,North,350,5.0,9.0,85,0.00,,,0.02,,2013-01-01 12:22:00,
2013-01-01 06:32:00,20.0,16.0,30.20,North,360,5.0,10.0,84,0.00,,,0.02,,2013-01-01 12:32:00,
2013-01-01 06:42:00,20.0,16.0,30.20,North,360,5.0,10.0,84,0.00,,,0.02,,2013-01-01 12:42:00,
2013-01-01 06:53:00,19.0,14.0,30.21,North,5,5.0,9.0,80,0.00,,,0.02,,2013-01-01 12:53:00,
2013-01-01 07:02:00,19.0,14.0,30.22,NNW,334,4.0,11.0,81,0.00,,,0.02,,2013-01-01 13:02:00,
2013-01-01 07:12:00,19.0,14.0,30.22,NNW,334,4.0,11.0,81,0.00,,,0.02,,2013-01-01 13:12:00,
2013-01-01 07:22:00,19.0,14.0,30.22,NNW,334,4.0,11.0,81,0.00,,,0.02,,2013-01-01 13:22:00,
2013-01-01 07:32:00,17.0,13.0,30.21,NNE,14,4.0,8.0,83,0.00,,,0.02,,2013-01-01 13:32:00,
2013-01-01 07:42:00,17.0,13.0,30.21,NNE,14,4.0,8.0,83,0.00,,,0.02,,2013-01-01 13:42:00,
2013-01-01 07:53:00,17.0,12.0,30.18,North,355,5.0,9.0,82,0.00,,,0.02,,2013-01-01 13:53:00,
2013-01-01 08:02:00,16.0,12.0,30.16,North,349,5.0,8.0,84,0.00,,,0.02,,2013-01-01 14:02:00,
2013-01-01 08:12:00,16.0,12.0,30.16,North,349,5.0,8.0,84,0.00,,,0.02,,2013-01-01 14:12:00,
2013-01-01 08:22:00,16.0,12.0,30.19,NNW,344,4.0,10.0,84,0.00,,,0.02,,2013-01-01 14:22:00,
2013-01-01 08:32:00,16.0,12.0,30.24,NNW,337,2.0,4.0,84,0.00,,,0.02,,2013-01-01 14:32:00,
2013-01-01 08:42:00,16.0,12.0,30.24,NNW,337,2.0,4.0,84,0.00,,,0.02,,2013-01-01 14:42:00,
2013-01-01 08:53:00,17.0,13.0,30.25,NNW,338,1.0,4.0,84,0.00,,,0.02,,2013-01-01 14:53:00,
2013-01-01 09:03:00,17.0,13.0,30.26,North,360,2.0,5.0,83,0.00,,,0.02,,2013-01-01 15:03:00,
2013-01-01 09:12:00,17.0,13.0,30.26,North,360,2.0,5.0,83,0.00,,,0.02,,2013-01-01 15:12:00,
2013-01-01 09:22:00,17.0,13.0,30.27,NNW,342,3.0,5.0,83,0.00,,,0.02,,2013-01-01 15:22:00,
2013-01-01 09:33:00,17.0,13.0,30.26,North,350,3.0,7.0,83,0.00,,,0.02,,2013-01-01 15:33:00,
2013-01-01 09:42:00,17.0,13.0,30.26,North,350,3.0,7.0,83,0.00,,,0.02,,2013-01-01 15:42:00,
2013-01-01 09:53:00,16.0,11.0,30.27,North,360,2.0,6.0,82,0.00,,,0.02,,2013-01-01 15:53:00,
2013-01-01 10:02:00,17.0,12.0,30.29,NNE,15,3.0,7.0,82,0.00,,,0.02,,2013-01-01 16:02:00,
2013-01-01 10:12:00,17.0,12.0,30.29,NNE,15,3.0,7.0,82,0.00,,,0.02,,2013-01-01 16:12:00,
2013-01-01 10:22:00,17.0,12.0,30.28,NNW,341,4.0,8.0,81,0.00,,,0.02,,2013-01-01 16:22:00,
2013-01-01 10:33:00,17.0,12.0,30.29,North,349,5.0,8.0,79,0.00,,,0.02,,2013-01-01 16:33:00,
2013-01-01 10:42:00,17.0,12.0,30.29,North,349,5.0,8.0,79,0.00,,,0.02,,2013-01-01 16:42:00,
2013-01-01 10:53:00,18.0,13.0,30.28,North,360,5.0,9.0,79,0.00,,,0.02,,2013-01-01 16:53:00,
2013-01-01 11:02:00,18.0,13.0,30.28,NNW,348,6.0,10.0,79,0.00,,,0.02,,2013-01-01 17:02:00,
2013-01-01 11:12:00,18.0,13.0,30.28,NNW,348,6.0,10.0,79,0.00,,,0.02,,2013-01-01 17:12:00,
2013-01-01 11:22:00,18.0,12.0,30.25,NW,311,5.0,11.0,78,0.00,,,0.02,,2013-01-01 17:22:00,
2013-01-01 11:33:00,18.0,12.0,30.24,North,360,6.0,10.0,76,0.00,,,0.02,,2013-01-01 17:33:00,
2013-01-01 11:43:00,18.0,12.0,30.24,North,360,6.0,10.0,76,0.00,,,0.02,,2013-01-01 17:43:00,
2013-01-01 11:53:00,18.0,12.0,30.25,NNW,338,6.0,11.0,77,0.00,,,0.02,,2013-01-01 17:53:00,
2013-01-01 12:03:00,18.0,12.0,30.25,North,355,5.0,10.0,76,0.00,,,0.02,,2013-01-01 18:03:00,
2013-01-01 12:12:00,18.0,12.0,30.25,North,355,5.0,10.0,76,0.00,,,0.02,,2013-01-01 18:12:00,
2013-01-01 12:22:00,19.0,12.0,30.26,NW,314,6.0,11.0,75,0.00,,,0.02,,2013-01-01 18:22:00,
2013-01-01 12:33:00,20.0,13.0,30.24,NNE,12,5.0,10.0,73,0.00,,,0.02,,2013-01-01 18:33:00,
2013-01-01 12:42:00,20.0,13.0,30.24,NNE,12,5.0,10.0,73,0.00,,,0.02,,2013-01-01 18:42:00,
2013-01-01 12:53:00,20.0,13.0,30.24,NNE,12,5.0,10.0,73,0.00,,,0.02,,2013-01-01 18:53:00,
2013-01-01 13:02:00,20.0,12.0,30.23,NNW,344,6.0,14.0,70,0.00,,,0.02,,2013-01-01 19:02:00,
2013-01-01 13:12:00,20.0,12.0,30.23,NNW,344,6.0,14.0,70,0.00,,,0.02,,2013-01-01 19:12:00,
2013-01-01 13:22:00,20.0,11.0,30.22,NNW,329,6.0,11.0,69,0.00,,,0.02,,2013-01-01 19:22:00,
2013-01-01 13:33:00,21.0,13.0,30.22,NNW,334,5.0,10.0,71,0.00,,,0.02,,2013-01-01 19:33:00,
2013-01-01 13:42:00,21.0,13.0,30.22,NNW,334,5.0,10.0,71,0.00,,,0.02,,2013-01-01 19:42:00,
2013-01-01 13:53:00,21.0,12.0,30.22,North,350,6.0,11.0,69,0.00,,,0.02,,2013-01-01 19:53:00,
2013-01-01 14:02:00,21.0,12.0,30.23,NW,323,7.0,14.0,67,0.00,,,0.02,,2013-01-01 20:02:00,
2013-01-01 14:12:00,21.0,12.0,30.23,NW,323,7.0,14.0,67,0.00,,,0.02,,2013-01-01 20:12:00,
2013-01-01 14:23:00,21.0,12.0,30.22,NNW,344,5.0,10.0,68,0.00,,,0.01,,2013-01-01 20:23:00,
2013-01-01 14:32:00,21.0,12.0,30.22,NNW,336,5.0,9.0,69,0.00,,,0.01,,2013-01-01 20:32:00,
2013-01-01 14:42:00,21.0,12.0,30.22,NNW,336,5.0,9.0,69,0.00,,,0.01,,2013-01-01 20:42:00,
2013-01-01 14:53:00,21.0,12.0,30.22,NNW,336,5.0,9.0,69,0.00,,,0.01,,2013-01-01 20:53:00,
2013-01-01 15:03:00,22.0,14.0,30.22,NNW,330,4.0,10.0,71,0.00,,,0.01,,2013-01-01 21:03:00,
2013-01-01 15:12:00,22.0,14.0,30.22,NNW,330,4.0,10.0,71,0.00,,,0.01,,2013-01-01 21:12:00,
2013-01-01 15:22:00,22.0,14.0,30.22,North,355,4.0,9.0,70,0.00,,,0.00,,2013-01-01 21:22:00,
2013-01-01 15:33:00,22.0,14.0,30.22,NNW,335,5.0,9.0,70,0.00,,,0.00,,2013-01-01 21:33:00,
2013-01-01 15:42:00,22.0,14.0,30.22,NNW,335,5.0,9.0,70,0.00,,,0.00,,2013-01-01 21:42:00,
2013-01-01 15:53:00,21.0,13.0,30.23,NW,322,4.0,9.0,70,0.00,,,0.00,,2013-01-01 21:53:00,
2013-01-01 16:02:00,21.0,12.0,30.23,NW,315,4.0,8.0,69,0.00,,,0.00,,2013-01-01 22:02:00,
2013-01-01 16:12:00,21.0,12.0,30.23,NW,315,4.0,8.0,69,0.00,,,0.00,,2013-01-01 22:12:00,
2013-01-01 16:22:00,21.0,12.0,30.22,NW,321,3.0,6.0,69,0.00,,,0.00,,2013-01-01 22:22:00,
2013-01-01 16:33:00,20.0,12.0,30.23,NW,306,3.0,6.0,70,0.00,,,0.00,,2013-01-01 22:33:00,
2013-01-01 16:42:00,20.0,12.0,30.23,NW,306,3.0,6.0,70,0.00,,,0.00,,2013-01-01 22:42:00,
2013-01-01 16:52:00,19.0,11.0,30.23,NW,306,2.0,7.0,71,0.00,,,0.00,,2013-01-01 22:52:00,
2013-01-01 17:02:00,18.0,11.0,30.24,WNW,284,3.0,6.0,74,0.00,,,0.00,,2013-01-01 23:02:00,
2013-01-01 17:12:00,18.0,11.0,30.24,WNW,284,3.0,6.0,74,0.00,,,0.00,,2013-01-01 23:12:00,
2013-01-01 17:22:00,17.0,11.0,30.25,WNW,296,3.0,6.0,76,0.00,,,0.00,,2013-01-01 23:22:00,
2013-01-01 17:32:00,17.0,11.0,30.25,WNW,292,3.0,5.0,77,0.00,,,0.00,,2013-01-01 23:32:00,
2013-01-01 17:42:00,17.0,11.0,30.25,WNW,292,3.0,5.0,77,0.00,,,0.00,,2013-01-01 23:42:00,
2013-01-01 17:53:00,16.0,11.0,30.26,WNW,292,4.0,7.0,79,0.00,,,0.00,,2013-01-01 23:53:00,
2013-01-01 18:02:00,16.0,11.0,30.27,WNW,290,4.0,8.0,79,0.00,,,0.00,,2013-01-02 00:02:00,
2013-01-01 18:12:00,16.0,11.0,30.27,WNW,290,4.0,8.0,79,0.00,,,0.00,,2013-01-02 00:12:00,
2013-01-01 18:22:00,16.0,11.0,30.27,NW,312,4.0,8.0,79,0.00,,,0.00,,2013-01-02 00:22:00,
2013-01-01 19:52:00,14.0,8.0,30.27,NW,309,3.0,6.0,77,0.00,,,0.00,,2013-01-02 01:52:00,
2013-01-01 20:02:00,14.0,8.0,30.27,NW,321,4.0,8.0,77,0.00,,,0.00,,2013-01-02 02:02:00,
2013-01-01 20:12:00,14.0,8.0,30.27,NW,321,4.0,8.0,77,0.00,,,0.00,,2013-01-02 02:12:00,
2013-01-01 20:22:00,13.0,7.0,30.27,NW,316,4.0,6.0,78,0.00,,,0.00,,2013-01-02 02:22:00,
2013-01-01 20:32:00,13.0,7.0,30.28,NW,321,2.0,5.0,78,0.00,,,0.00,,2013-01-02 02:32:00,
2013-01-01 20:42:00,13.0,7.0,30.28,NW,321,2.0,5.0,78,0.00,,,0.00,,2013-01-02 02:42:00,
2013-01-01 20:53:00,13.0,8.0,30.27,NW,321,1.0,3.0,79,0.00,,,0.00,,2013-01-02 02:53:00,
2013-01-01 21:02:00,12.0,7.0,30.26,NW,323,1.0,3.0,80,0.00,,,0.00,,2013-01-02 03:02:00,
2013-01-01 21:12:00,12.0,7.0,30.26,NW,323,1.0,3.0,80,0.00,,,0.00,,2013-01-02 03:12:00,
2013-01-01 21:22:00,12.0,7.0,30.26,NW,323,0.0,2.0,81,0.00,,,0.00,,2013-01-02 03:22:00,
2013-01-01 21:32:00,12.0,7.0,30.26,NW,323,0.0,1.0,81,0.00,,,0.00,,2013-01-02 03:32:00,
2013-01-01 21:42:00,12.0,7.0,30.26,NW,323,0.0,1.0,81,0.00,,,0.00,,2013-01-02 03:42:00,
2013-01-01 21:53:00,11.0,6.0,30.27,NW,323,1.0,2.0,81,0.00,,,0.00,,2013-01-02 03:53:00,
2013-01-01 22:32:00,11.0,7.0,30.27,NW,323,1.0,2.0,83,0.00,,,0.00,,2013-01-02 04:32:00,
2013-01-01 22:42:00,11.0,7.0,30.27,NW,323,1.0,2.0,83,0.00,,,0.00,,2013-01-02 04:42:00,
2013-01-01 22:52:00,11.0,7.0,30.27,NW,323,1.0,3.0,82,0.00,,,0.00,,2013-01-02 04:52:00,
2013-01-01 23:03:00,10.0,6.0,30.28,WNW,295,1.0,3.0,82,0.00,,,0.00,,2013-01-02 05:03:00,
2013-01-01 23:12:00,10.0,6.0,30.28,WNW,295,1.0,3.0,82,0.00,,,0.00,,2013-01-02 05:12:00,
2013-01-01 23:22:00,10.0,6.0,30.28,WNW,295,0.0,2.0,84,0.00,,,0.00,,2013-01-02 05:22:00,
2013-01-01 23:33:00,10.0,6.0,30.29,WNW,295,1.0,3.0,84,0.00,,,0.00,,2013-01-02 05:33:00,
2013-01-01 23:42:00,10.0,6.0,30.29,WNW,295,1.0,3.0,84,0.00,,,0.00,,2013-01-02 05:42:00,
2013-01-01 23:53:00,10.0,6.0,30.27,WNW,295,1.0,2.0,84,0.00,,,0.00,,2013-01-02 05:53:00,